Location: Newark
(44.1667°N, 8.2500°E)
Time: 21:30:40
(UTC+00:00)

Explorer 11/Cluster Stage 4 - Pass Details

Date: 21 December 2019
Orbit: 467 x 1259 km, 28.8° (Epoch: 20 January)

Event Time Altitude Azimuth Distance (km) Brightness Sun altitude
Exits shadow 05:05:05 - 224° (SW) 3,993 9.9 -19.5°
Reaches altitude 10° 05:08:31 10° 210° (SSW) 3,142 9.5 -18.9°
Maximum altitude 05:14:11 21° 165° (SSE) 2,467 9.4 -17.9°
Drops below altitude 10° 05:19:58 10° 120° (ESE) 3,222 10.9 -16.9°
Sets 05:23:38 0° 106° (ESE) 4,149 12.1 -16.3°
